This is the latest recevied weather packets stored in our database for station/object WV6L-13. If no packets are shown the sender has not sent any weather packets the latest 10 day(s).
| Time | Temp. | Humidity | Pressure | Rain* | Wind** | Luminosity | Snow |
|---|---|---|---|---|---|---|---|
| 1778165392 | 18.33° C | 33% | 929.1 hPa | - | - | - | - |
| 1778165092 | 19.44° C | 33% | 929.1 hPa | - | - | - | - |
| 1778164792 | 19.44° C | 32% | 929 hPa | - | - | - | - |
| 1778164493 | 19.44° C | 33% | 929.2 hPa | - | - | - | - |
| 1778164192 | 17.78° C | 34% | 929.2 hPa | - | - | - | - |
| 1778163892 | 17.78° C | 35% | 929 hPa | - | - | - | - |
| 1778163593 | 17.22° C | 36% | 929.1 hPa | - | - | - | - |
| 1778163292 | 16.67° C | 38% | 929.3 hPa | - | - | - | - |
| 1778162992 | 16.11° C | 38% | 929 hPa | - | - | - | - |
| 1778162693 | 15.56° C | 39% | 929.2 hPa | - | - | - | - |
| 1778162392 | 14.44° C | 41% | 928.9 hPa | - | - | - | - |
| 1778162092 | 13.33° C | 43% | 929 hPa | - | - | - | - |
| 1778161193 | 12.22° C | 45% | 928.8 hPa | - | - | - | - |
| 1778160892 | 12.22° C | 45% | 928.9 hPa | - | - | - | - |
| 1778160592 | 11.67° C | 45% | 928.7 hPa | - | - | - | - |
| 1778160292 | 11.11° C | 46% | 928.7 hPa | - | - | - | - |
| 1778159992 | 10.56° C | 47% | 928.7 hPa | - | - | - | - |
| 1778159692 | 10.56° C | 48% | 928.8 hPa | - | - | - | - |
| 1778159392 | 10° C | 49% | 928.8 hPa | - | - | - | - |
| 1778159091 | 10° C | 49% | 928.6 hPa | - | - | - | - |
| 1778158792 | 10° C | 50% | 928.6 hPa | - | - | - | - |
| 1778158493 | 10° C | 50% | 928.5 hPa | - | - | - | - |
| 1778158192 | 10.56° C | 49% | 928.6 hPa | - | - | - | - |
| 1778157592 | 10.56° C | 49% | 928.5 hPa | - | - | - | - |
| 1778157292 | 11.11° C | 48% | 928.3 hPa | - | - | - | - |
* Rain since midnight (hover to see other rain measurements)
** Current wind speed in m/s (hover to see current wind gust speed)